#timestamp,LO_Frequency,Hit,StdDev 
1700499615.4,286047001.8,N
1700499635.3,286047000.1,N
1700499655.1,286047000.5,N
1700499675.9,286047002.0,N
1700499695.7,286047002.7,N
1700499715.5,286047000.4,N
1700499735.4,286047003.2,N
1700499755.2,286047001.8,N
1700499775.1,286047001.6,N
1700499776.0,286047001.6,N
1700499795.8,286047002.0,N
1700499815.6,286047003.8,N
1700499835.5,286047004.9,N
1700499855.3,286047003.9,N
1700499875.1,286047005.5,N
1700499895.9,286047005.8,N
1700499915.7,286047003.1,N
1700499935.6,286047005.8,N
1700499955.4,286047011.7,Y
1700499975.2,286047004.9,P
1700499995.1,286047003.0,N
1700499996.0,286047003.0,N
1700500015.8,286047003.9,Y
1700500035.7,286047002.5,P
1700500055.5,286047008.8,P
1700500075.3,286047007.8,N
1700500095.2,286047004.9,N
1700500115.0,286047003.1,N
1700500115.9,286047003.1,N
1700500135.7,286047003.1,N
1700500155.6,286047008.7,Y
1700500175.4,286047005.9,P
1700500195.3,286047007.4,P
1700500215.1,286047003.7,P
1700500216.0,286047003.7,N
1700500235.8,286047003.7,N
1700500255.7,286047005.7,Y
1700500275.5,286047004.4,P
1700500295.4,286047004.4,P
1700500315.2,286047005.3,P
1700500335.0,286047004.3,Y
1700500335.9,286047004.3,P
1700500355.8,286046999.4,N
1700500375.6,286047000.0,N
1700500395.4,286047003.1,N
1700500415.3,286047003.7,N
1700500435.1,286047004.0,N
1700500455.9,286047004.4,N
1700500475.7,286047007.3,Y
1700500495.5,286047005.3,P
1700500515.4,286047007.5,P
1700500535.2,286047008.3,P
1700500555.1,286047012.0,Y
1700500556.0,286047012.0,P
1700500575.8,286047005.0,N
1700500595.6,286047006.0,N
1700500615.5,286047007.3,N
1700500635.3,286047011.8,Y
1700500655.1,286047005.6,P
1700500675.9,286047003.9,P
1700500695.7,286047004.4,P
1700500715.6,286047003.6,N
1700500735.4,286047002.2,N
1700500755.2,286046999.7,N
1700500775.1,286047004.3,N
1700500776.0,286047004.3,N
1700500795.8,286047002.5,N
1700500815.7,286046999.8,N
1700500835.5,286047001.7,N
1700500855.3,286047003.4,N
1700500875.2,286047003.1,N
1700500895.9,286047003.4,N
1700500915.7,286047003.9,N
1700500935.6,286047001.5,N
1700500955.4,286047001.1,N
1700500975.2,286047002.8,N
1700500995.1,286047002.5,N
1700500996.0,286047002.5,N
1700501015.8,286047001.9,N
1700501035.7,286047001.5,N
1700501055.5,286046999.7,N
1700501075.3,286046998.5,N
1700501095.2,286046997.0,N
1700501115.0,286046998.4,N
1700501115.9,286046998.4,N
1700501135.8,286046999.3,N
1700501155.6,286047000.0,N
1700501175.4,286047002.8,N
1700501195.3,286046999.7,N
1700501215.1,286047000.5,N
1700501235.8,286047000.3,N
1700501255.7,286046998.5,N
1700501275.5,286046996.8,N
1700501295.4,286046998.9,N
1700501315.2,286046998.4,N
1700501335.0,286046999.6,N
1700501335.9,286046999.6,N
1700501355.8,286046996.8,N
1700501375.6,286047001.1,N
1700501395.4,286047001.9,N
1700501415.3,286047001.5,N
1700501435.1,286047001.8,N
1700501455.9,286047001.3,N
1700501475.7,286047001.8,N
1700501495.5,286047001.4,N
1700501515.4,286047004.7,N
1700501535.2,286047004.2,N
1700501555.0,286047001.8,N
1700501555.9,286047001.8,N
1700501575.8,286047002.2,N
1700501595.6,286047000.8,N
1700501615.5,286047000.2,N
1700501635.3,286047002.7,N
1700501655.1,286047000.4,N
1700501675.9,286047002.3,N
1700501695.7,286047001.6,N
1700501715.6,286047004.1,N
1700501735.4,286046999.7,N
1700501755.2,286047003.5,N
1700501775.1,286047005.9,Y
1700501776.0,286047005.9,P
1700501795.8,286047003.5,N
1700501815.7,286047003.9,N
1700501835.5,286047001.5,N
1700501855.3,286047000.1,N
1700501875.2,286047002.0,N
1700501895.9,286047003.4,N
1700501915.7,286047003.4,N
1700501935.6,286047004.3,N
1700501955.4,286047004.3,N
1700501975.3,286047001.4,N
1700501995.1,286047003.6,N
1700501996.0,286047003.6,N
1700502015.8,286047001.7,N
1700502035.7,286047000.4,N
1700502055.5,286047001.0,N
1700502075.3,286047000.5,N
1700502095.2,286047002.7,N
1700502115.0,286047001.6,N
1700502115.9,286047001.6,N
1700502135.8,286047004.3,N
1700502155.6,286047003.0,N
1700502175.4,286047003.8,N
1700502195.3,286047005.8,Y
1700502215.1,286046999.7,P
1700502235.8,286047000.3,N
1700502255.7,286047002.4,N
1700502275.5,286047001.1,N
1700502295.4,286046999.0,N
1700502315.2,286047003.5,N
1700502335.0,286047000.6,N
1700502335.9,286047000.6,N
1700502355.8,286047000.9,N
1700502375.6,286047002.4,N
1700502395.4,286046999.9,N
1700502415.3,286047002.7,N
1700502435.1,286047005.4,Y
1700502455.9,286047002.0,P
1700502475.7,286047001.2,N
1700502495.5,286047001.0,N
1700502515.4,286046999.7,N
1700502535.2,286047001.5,N
1700502555.0,286047001.3,N
1700502556.0,286047001.3,N
1700502575.8,286047004.2,Y
1700502595.6,286047002.7,P
1700502615.5,286046998.4,N
1700502635.3,286046999.6,N
1700502655.1,286046997.7,N
1700502675.9,286046999.5,N
1700502695.7,286047001.1,N
1700502715.6,286047002.2,N
1700502735.4,286047001.8,N
1700502755.2,286047001.8,N
1700502775.1,286047000.7,N
1700502776.0,286047000.7,N
1700502795.8,286047001.9,N
1700502815.6,286047005.9,Y
1700502835.5,286047003.0,P
1700502855.3,286047001.4,N
1700502875.2,286047003.7,P
1700502895.9,286047004.6,Y
1700502915.7,286047005.6,P
1700502935.6,286047006.6,P
1700502955.4,286047010.6,P
1700502975.3,286047010.4,Y
1700502995.1,286047003.2,P
1700502996.0,286047003.2,N
1700503015.8,286047004.2,N
1700503035.7,286047003.2,N
1700503055.5,286047004.3,Y
1700503075.3,286046998.8,P
1700503095.2,286046998.3,N
1700503115.0,286046998.7,N
1700503115.9,286046998.7,N
1700503135.8,286047011.9,Y
1700503155.6,286047000.8,P
1700503175.4,286046999.8,N
1700503195.3,286047001.5,N
